TimeMST,TemperatureF,Dew PointF,Humidity,Sea Level PressureIn,VisibilityMPH,Wind Direction,Wind SpeedMPH,Gust SpeedMPH,PrecipitationIn,Events,Conditions,WindDirDegrees,DateUTC
12:53 AM,15.1,6.1,68,30.13,10.0,NNW,12.7,-,N/A,,Clear,340,2013-02-24 07:53:00
1:53 AM,14.0,5.0,67,30.15,10.0,NE,5.8,-,N/A,,Clear,50,2013-02-24 08:53:00
2:53 AM,10.0,3.0,73,30.17,10.0,North,6.9,-,N/A,,Clear,10,2013-02-24 09:53:00
3:53 AM,9.0,1.9,73,30.20,10.0,North,6.9,-,N/A,,Clear,350,2013-02-24 10:53:00
4:53 AM,10.0,3.0,73,30.22,10.0,Calm,Calm,-,N/A,,Clear,0,2013-02-24 11:53:00
5:53 AM,1.9,-2.9,80,30.28,10.0,North,4.6,-,N/A,,Clear,350,2013-02-24 12:53:00
6:53 AM,3.0,-2.0,80,30.31,10.0,North,5.8,-,N/A,,Clear,10,2013-02-24 13:53:00
7:53 AM,7.0,3.9,87,30.32,10.0,Calm,Calm,-,N/A,,Clear,0,2013-02-24 14:53:00
8:53 AM,3.9,-0.0,84,30.37,10.0,West,4.6,-,N/A,,Clear,280,2013-02-24 15:53:00
9:53 AM,12.0,3.9,70,30.38,10.0,West,3.5,-,N/A,,Clear,280,2013-02-24 16:53:00
10:53 AM,19.9,7.0,57,30.35,10.0,Calm,Calm,-,N/A,,Clear,0,2013-02-24 17:53:00
11:53 AM,23.0,7.0,50,30.35,10.0,Calm,Calm,-,N/A,,Clear,0,2013-02-24 18:53:00
12:53 PM,23.0,10.9,60,30.35,10.0,SW,9.2,-,N/A,,Clear,220,2013-02-24 19:53:00
1:53 PM,25.0,12.9,60,30.33,10.0,SSW,9.2,-,N/A,,Clear,210,2013-02-24 20:53:00
2:53 PM,26.1,12.9,58,30.34,10.0,South,11.5,-,N/A,,Clear,190,2013-02-24 21:53:00
3:53 PM,27.0,15.1,61,30.35,10.0,SSW,12.7,-,N/A,,Clear,210,2013-02-24 22:53:00
4:53 PM,26.1,16.0,66,30.36,10.0,SSW,16.1,-,N/A,,Clear,210,2013-02-24 23:53:00
5:53 PM,24.1,16.0,71,30.40,10.0,SSW,10.4,-,N/A,,Clear,200,2013-02-25 00:53:00
6:53 PM,23.0,16.0,74,30.40,10.0,South,10.4,-,N/A,,Clear,190,2013-02-25 01:53:00
7:53 PM,21.9,15.1,75,30.39,10.0,South,6.9,-,N/A,,Clear,170,2013-02-25 02:53:00
8:53 PM,21.9,15.1,75,30.41,10.0,South,4.6,-,N/A,,Clear,180,2013-02-25 03:53:00
9:53 PM,21.9,14.0,72,30.37,10.0,South,6.9,-,N/A,,Clear,190,2013-02-25 04:53:00
10:53 PM,17.1,12.0,81,30.36,10.0,SW,6.9,-,N/A,,Clear,230,2013-02-25 05:53:00
11:53 PM,7.0,3.0,84,30.39,8.0,Calm,Calm,-,N/A,,Partly Cloudy,0,2013-02-25 06:53:00